Vertical_Velocity
1 2 2 2 1 0 -1 -1 -1 -1 0 1 -1 -1 0 -1 -2 -1 -1 -1 -1 -1 -1 -1 -2 -2 -0 -3 -2 -2 -2 -1 -1
0 2 1 3 2 2 -0 -0 -0 -0 -0 1 -1 0 -1 -2 -0 -1 -1 -2 -0 0 -0 -2 -0 -1 -1 -3 -2 -2 -2 -2 -2
0 2 2 1 2 2 1 0 0 0 -0 -0 0 -1 1 -1 -1 -1 -1 -3 -1 0 0 -2 -0 -1 -2 -1 -1 -0 -2 -2 -2
4 1 3 1 2 1 0 0 -0 1 2 -1 -0 -0 1 1 -1 0 -1 -1 0 1 -0 -2 -1 -1 -1 -1 -1 -1 -0 -1 -2
0 1 2 0 2 3 0 1 1 -1 2 0 1 0 -0 1 0 1 -0 0 0 1 0 -1 -2 -1 -1 -1 1 -1 1 -1 -2
1 3 2 2 2 1 3 1 -0 -0 -0 2 -2 1 0 0 -1 -1 -1 2 1 1 -0 0 -1 -2 -1 -2 -1 1 -1 0 -2
1 1 3 3 4 2 2 1 0 0 0 2 2 -0 -0 -1 2 1 -1 1 0 0 1 1 -0 -2 1 -1 -1 0 -1 -1 -1
3 0 1 2 3 0 1 0 1 1 1 0 1 2 -0 -0 1 -1 0 3 -1 0 -0 1 -1 -2 1 -2 -1 0 -1 -0 -0
0 -1 3 2 3 4 2 2 2 1 0 0 0 1 3 -2 0 -0 -0 3 -1 1 -1 1 -0 -1 1 0 -0 0 -0 -1 -1
-1 -1 2 0 0 4 1 3 2 2 1 0 1 2 1 0 -0 1 0 1 0 1 1 2 -0 -1 1 1 -1 -0 -0 1 -0
0 1 -1 -0 -0 2 0 2 1 -1 3 -0 1 1 3 -4 3 -1 -1 0 1 1 2 1 1 -1 1 1 1 1 -1 0 0
1 4 -1 -0 0 0 2 2 1 2 -0 2 2 1 2 2 0 0 1 0 0 0 2 0 2 1 -0 2 1 2 1 0 1
6 4 1 1 -1 2 -1 2 1 1 -0 2 0 1 1 -1 1 1 2 -0 -1 1 0 0 2 1 1 1 2 2 2 1 -0
5 3 2 -0 1 4 -3 1 0 1 1 1 0 -2 -0 0 0 0 1 -0 0 0 0 1 -0 2 1 1 0 1 2 2 2
3 2 3 -2 2 3 1 1 0 1 0 1 1 0 1 2 -0 -1 1 1 3 -1 -1 1 -2 2 2 1 1 0 1 1 1
2 -0 1 0 3 3 -1 0 1 1 1 -1 2 2 -1 1 -1 1 3 3 1 -2 -0 -1 1 1 2 2 2 1 1 1 2
-2 4 -3 1 1 2 4 -0 2 4 -0 0 -0 0 3 1 0 1 2 -1 -2 -0 1 1 -3 3 1 2 1 1 1 1 0
2 5 0 -0 0 4 2 1 -1 5 -1 -0 0 -2 7 -3 -1 0 -0 1 3 1 3 1 -3 -1 1 1 0 -0 1 0 -1
6 2 -1 -6 -3 -1 5 -0 0 2 4 -2 2 -1 4 0 2 -1 -1 1 2 1 2 0 -0 -1 1 1 1 -1 1 0 -0
-3 5 -3 -4 -2 -0 -2 -2 4 3 -2 3 1 0 -0 -1 5 -0 -1 -1 2 2 1 4 2 -4 1 -1 -1 -0 0 -1 -1
Height
5884 5886 5887 5889 5891 5892 5894 5895 5897 5898 5900 5901 5901 5901 5902 5903 5903 5904 5903 5903 5903 5903 5902 5901 5901 5900 5898 5897 5896 5895 5893 5891 5889
5882 5884 5886 5888 5890 5891 5893 5894 5896 5897 5899 5900 5900 5901 5902 5902 5902 5903 5903 5903 5903 5903 5902 5902 5901 5899 5899 5898 5896 5895 5894 5892 5890
5880 5883 5884 5886 5888 5890 5891 5893 5895 5897 5898 5899 5900 5900 5901 5901 5901 5902 5902 5902 5902 5902 5902 5901 5900 5899 5899 5898 5897 5895 5894 5893 5891
5878 5880 5882 5884 5886 5888 5890 5891 5893 5895 5897 5897 5899 5899 5900 5900 5900 5901 5901 5901 5901 5901 5901 5900 5900 5899 5898 5898 5897 5896 5894 5893 5892
5874 5876 5879 5881 5883 5885 5887 5889 5890 5893 5895 5896 5897 5897 5898 5898 5899 5899 5899 5900 5900 5900 5900 5898 5898 5898 5897 5897 5896 5895 5894 5893 5892
5871 5873 5875 5878 5880 5881 5883 5885 5887 5890 5892 5895 5895 5896 5896 5897 5897 5898 5898 5899 5898 5898 5897 5897 5896 5897 5897 5896 5895 5894 5894 5892 5891
5867 5869 5871 5874 5876 5878 5880 5882 5884 5886 5888 5891 5893 5893 5894 5894 5895 5896 5896 5897 5897 5896 5896 5895 5895 5894 5895 5895 5894 5893 5892 5892 5891
5863 5864 5866 5868 5871 5874 5876 5879 5880 5883 5885 5887 5890 5891 5891 5892 5893 5893 5893 5894 5894 5894 5893 5893 5892 5892 5893 5893 5893 5892 5891 5890 5889
5858 5860 5862 5864 5867 5869 5871 5874 5876 5879 5881 5883 5885 5887 5889 5888 5889 5890 5891 5892 5891 5891 5890 5890 5890 5890 5890 5890 5890 5890 5889 5888 5888
5852 5856 5858 5860 5862 5864 5866 5869 5871 5874 5876 5878 5880 5882 5884 5884 5885 5886 5887 5888 5888 5888 5888 5887 5887 5886 5887 5887 5887 5887 5887 5886 5885
5845 5850 5852 5854 5857 5860 5861 5864 5866 5868 5871 5873 5875 5877 5879 5879 5882 5882 5884 5885 5885 5885 5885 5885 5884 5884 5883 5883 5883 5883 5883 5882 5881
5838 5842 5845 5848 5852 5853 5856 5859 5861 5863 5865 5868 5870 5872 5874 5875 5877 5879 5880 5880 5880 5880 5881 5881 5881 5881 5880 5880 5879 5879 5879 5878 5878
5830 5833 5836 5840 5844 5847 5850 5853 5855 5858 5860 5862 5864 5866 5868 5870 5872 5873 5875 5876 5875 5876 5876 5877 5877 5877 5878 5877 5876 5875 5874 5873 5873
5820 5825 5827 5832 5835 5840 5842 5847 5849 5852 5853 5856 5858 5860 5862 5864 5866 5868 5869 5871 5871 5871 5871 5871 5872 5872 5872 5872 5871 5870 5869 5868 5867
5811 5816 5818 5822 5826 5831 5835 5838 5841 5844 5847 5849 5851 5853 5855 5857 5859 5861 5863 5865 5866 5865 5865 5866 5866 5866 5865 5867 5866 5865 5864 5863 5862
5802 5806 5809 5814 5817 5821 5825 5829 5832 5836 5839 5841 5844 5847 5848 5850 5852 5854 5856 5858 5859 5859 5860 5860 5860 5859 5860 5860 5860 5859 5858 5857 5856
5790 5795 5799 5803 5807 5812 5816 5819 5823 5827 5830 5834 5835 5838 5842 5843 5845 5847 5848 5849 5851 5853 5853 5854 5852 5853 5853 5853 5852 5852 5851 5851 5849
5778 5783 5787 5792 5796 5801 5806 5809 5812 5817 5820 5824 5827 5830 5834 5835 5836 5838 5840 5842 5844 5845 5846 5846 5845 5844 5845 5845 5844 5843 5844 5843 5841
5763 5769 5775 5780 5785 5790 5795 5799 5801 5806 5810 5814 5818 5821 5824 5826 5829 5830 5832 5833 5836 5837 5838 5838 5838 5837 5837 5836 5836 5835 5836 5835 5834
5748 5756 5764 5769 5775 5778 5781 5787 5792 5797 5800 5804 5807 5811 5814 5817 5821 5822 5824 5825 5826 5827 5829 5831 5831 5830 5828 5828 5827 5827 5827 5827 5826